Sivas, Turkey

2:34 PM +03 on June 27, 2017 (GMT +0300)
Sivas

Weather History for LTAR - July, 2013

Change the Weather History Date:

Saturday, July 20, 2013

  Actual Average Record
Temperature  
Mean Temperature 64 °F -  
Max Temperature 83 °F 82 °F - ()
Min Temperature 46 °F 52 °F - ()
Growing Degree Days 14 (Base 50)    
Moisture  
Dew Point 44 °F    
Average Humidity 56    
Maximum Humidity 88    
Minimum Humidity 11    
Precipitation  
Precipitation 0.00 in 0.01 in - ()
Sea Level Pressure  
Sea Level Pressure 30.00 in    
Wind  
Wind Speed 6 mph ()    
Max Wind Speed 22 mph    
Max Gust Speed -    
Visibility 9.0 miles    
Events      
T = Trace of Precipitation, MM = Missing Value Source: Averaged Metar Reports

Daily Weather History Graph

Daily Weather History Graph

Search for Another Location

Airport or City:

Trip Planner

Search our weather history database for the weather conditions in past years. The results will help you decide how hot, cold, wet, or windy it might be!

Date:

Astronomy

Jul. 20, 2013 Rise Set
Actual Time 5:20 AM EEST 7:56 PM EEST
Civil Twilight 4:49 AM EEST 8:27 PM EEST
Nautical Twilight 4:10 AM EEST 9:06 PM EEST
Astronomical Twilight 3:26 AM EEST 9:50 PM EEST
Moon 5:39 PM EEST (7/20) 2:39 AM EEST (7/20)
Length of Visible Light 15h 38m
Length of Day
14h 35m
Waxing Gibbous, 92% of the Moon is Illuminated
Jul 20
Waxing Gibbous
Jul 22
Full
Jul 29
Last Quarter
Aug 7
New
Aug 14
First Quarter

Hourly Weather History & Observations

Time (EEST) Temp. Dew Point Humidity Pressure Visibility Wind Dir Wind Speed Gust Speed Precip Events Conditions
12:50 AM 48.2 °F 42.8 °F 82% 30.06 in - NNE 4.6 mph - N/A   Clear
1:50 AM 48.2 °F 42.8 °F 82% 30.06 in - Calm Calm - N/A   Clear
2:50 AM 48.2 °F 42.8 °F 82% 30.04 in - Calm Calm - N/A   Clear
3:00 AM 55 °F 46 °F 63%  in 9 mi Calm Calm - -  
3:50 AM 48.2 °F 41.0 °F 76% 30.04 in - Calm Calm - N/A   Clear
4:50 AM 46.4 °F 41.0 °F 81% 30.04 in - Variable 2.3 mph - N/A   Clear
6:50 AM 51.8 °F 44.6 °F 76% 30.04 in - NE 5.8 mph - N/A   Clear
7:50 AM 57.2 °F 42.8 °F 59% 30.01 in - NE 12.7 mph - N/A   Clear
8:50 AM 60.8 °F 41.0 °F 48% 30.01 in - ENE 11.5 mph - N/A   Clear
9:50 AM 64.4 °F 41.0 °F 42% 30.01 in - Variable 6.9 mph - N/A   Clear
10:50 AM 66.2 °F 39.2 °F 37% 30.01 in - Variable 8.1 mph - N/A   Clear
11:50 AM 68.0 °F 39.2 °F 35% 29.98 in - Variable 5.8 mph - N/A   Clear
12:50 PM 71.6 °F 41.0 °F 33% 29.98 in - North 6.9 mph - N/A   Clear
1:50 PM 73.4 °F 41.0 °F 31% 29.95 in - Variable 9.2 mph - N/A   Clear
2:50 PM 73.4 °F 42.8 °F 33% 29.95 in - NNW 12.7 mph - N/A   Clear
3:00 PM 82 °F 37 °F 11%  in 9 mi NNW 3.5 mph - -  
3:50 PM 73.4 °F 44.6 °F 36% 29.95 in - NNW 18.4 mph - N/A   Clear
4:50 PM 73.4 °F 44.6 °F 36% 29.95 in - NNW 18.4 mph - N/A   Clear
5:50 PM 69.8 °F 46.4 °F 43% 29.95 in - NNW 19.6 mph - N/A   Clear
6:50 PM 66.2 °F 46.4 °F 49% 29.95 in - NNW 21.9 mph - N/A   Clear
7:50 PM 60.8 °F 48.2 °F 63% 29.98 in - North 18.4 mph - N/A   Clear
8:50 PM 57.2 °F 48.2 °F 72% 29.98 in - North 12.7 mph - N/A   Clear
9:00 PM 65 °F 49 °F 45%  in 9 mi North 8.1 mph - -  
9:50 PM 55.4 °F 48.2 °F 77% 30.01 in - NNW 13.8 mph - N/A   Clear
10:50 PM 53.6 °F 48.2 °F 82% 29.98 in - North 12.7 mph - N/A   Clear
11:50 PM 51.8 °F 48.2 °F 88% 29.98 in - NNW 11.5 mph - N/A   Clear